STARLINK-34769, 65094

Orbit data source: Space-Track

STARLINK-34769, 65094 is a payload satellite owned by SpaceX/Seattle (US) in LEO that was launched on Mon, 04 Aug 2025 UTC via an FALCON 9 launch vehicle from the Air Force Eastern Test Range (AFETR). Payload-class satellites include a variety of spacecraft equipped with specific instruments for various scientific and technological missions. These include communications satellites like Starlink; space stations such as the ISS; scientific satellites like the Hubble; Earth observation satellites from companies like Planet Labs, Umbra, and HawkEye 360; GPS; miniature CubeSats for education and research; and military/defense satellites.

Loading next visibility...
Identifier
65094, 2025-167S
Orbit
LEO
Country
Flag of USUS
Related business
Manufacturer
SpaceX/Seattle
Mission
Operational Commercial Communications
Bus & Motor
STARLINK V2MO, Unknown motor
Mass
575 kg wet, ~530 kg dry
Launch date (UTC)
2025-08-04 (9 months ago)
Launch vehicle
FALCON 9
Launch site
Air Force Eastern Test Range (AFETR)
Object type
Payload
Rocket body
Debris
Shape & HBR
Box + 2 Pan, 17.7 m
Radar Cross Section
36.964 m², Large (>1 m²)

Expand to show TLE details & history
Last TLE update: 11 hours ago

TLE from 11 hours ago
0 STARLINK-34769
1 65094U 25167S   26127.28042192  .00026137  00000-0  60783-3 0  9997
2 65094  53.1602 113.5632 0001202 102.4781 257.6360 15.42169156 42456
Epoch: 2026-05-07T06:43Z
TLE epoch observation values (Epoch: 2026-05-07T06:43:48.453Z)
Latitude
-0°
Longitude
147.48249°
Altitude
440.789 km
Speed
7.649 km/s
True Right ascension
07h 34m 15s
True Declination
0° 00' 00"
Sunlit
Object was in daylight at epoch
Visualization orbit readout
Latitude
Unknown
Longitude
Unknown
Altitude
Unknown
Speed
Unknown
Apparent Right ascension
Unknown
Apparent Declination
Unknown
Sunlit
N/A
Visualization observer readout
Local Sidereal Time
01:56:42
Azimuth
Unknown
Elevation
Unknown
Doppler factor
Unknown
Orbital elements
Apogee altitude
440.786 km
Perigee altitude
439.147 km
Semi-major axis
6,818.103 km
Eccentricity
0.00012
Inclination
53.1602°
RAAN
113.5632°
Arg. of periapsis
102.4781°
True anomaly
257.62255°
Mean anomaly
257.636°
Eccentric anomaly
257.62927°
Mean motion
3.85521 °/min
Orbital period
93.38 mins
BSTAR
0.00060783
Loading maneuver chart data...
Computing Atmospheric mass density...
Loading historical data...
Loading historical data...
Loading historical data...
Loading historical data...
Loading historical data...
Loading historical data...
Loading historical data...

Documentation

Showing up to 5 results
|